Tracking 29606 objects as of 19-Sep-2024
HD Live streaming from Space Station
objects crossing your sky now

GALAXY 10R

Track GALAXY 10R now!
GALAXY 10R is classified as:


NORAD ID: 26056
Int'l Code: 2000-002A
Perigee: 35,937.1 km
Apogee: 36,009.3 km
Inclination: 11.2 °
Period: 1,445.3 minutes
Semi major axis: 42344 km
RCS: 16.229 m2 (large)
Launch date: January 25, 2000
Source: United States (US)
Launch site: FRENCH GUIANA (FRGUI)

Digital and voice communications; 24 C-band< 24 Ku-band; North America.
Your satellite tracking list
Your tracking list is empty




NASA's NSSDC Master Catalog

Two Line Element Set (TLE):
1 26056U 00002A   24262.46216199  .00000072  00000-0  00000-0 0  9994
2 26056  11.1571  35.8716 0008528 143.8234  49.0805  0.99635118 89987
Source of the keplerian elements: AFSPC